User: anonymous   Login
Location: Unspecified
(0.0000°N, 0.0000°E)
Time: 23:15:44
(UTC+00:00)
Language:

USA 247 - Orbit

View from above orbital plane
View from above orbital plane
View from above satellite
View from above satellite

Ground track
Ground track

The orbit data is extracted from the following two-line orbital elements,

1 39462U 13072A   16235.93714270 0.00000000  00000-0  00000-0 0    00
2 39462 122.9997  59.7873 0004000  37.6639 322.3360 13.41422708    03
Epoch (UTC): 22 August 2016 22:29:29
Eccentricity: 0.0004000
inclination: 122.9997°
perigee height: 1101 km
apogee height: 1107 km
right ascension of ascending node: 59.7873°
argument of perigee: 37.6639°
revolutions per day: 13.41422708
mean anomaly at epoch: 322.3360°
orbit number at epoch: 0

The dashed part of the orbit path shows where the satellite is in the earth's shadow,  

DLR